GFSNE_sfc_temp_000.txt.gz
Temp
65 64 63 62 60 60 58 58 55 50 51 55 56 62 66 65 67 69 71 72 70 70 68 68 69 70 72 74 74 75 75 76 76 75 75 76 77 78
64 64 63 61 60 60 58 57 56 54 51 55 58 62 65 66 68 69 71 72 71 69 68 68 68 69 70 71 72 72 73 74 74 74 73 73 74 75
63 63 64 62 60 59 58 57 56 55 54 56 57 62 61 62 65 64 67 69 70 69 68 68 67 67 68 69 70 71 72 72 72 72 72 73 72 72
63 62 63 65 60 59 58 57 56 56 56 54 57 58 60 62 62 62 66 71 70 71 68 67 67 66 67 67 67 68 68 69 69 69 70 71 72 71
64 62 62 61 60 58 58 57 57 58 56 56 57 59 59 61 62 62 62 64 69 71 67 66 67 66 65 64 64 64 63 64 65 65 66 67 69 70
64 63 62 61 61 59 58 58 57 56 55 56 56 57 58 62 61 58 58 61 63 69 72 70 69 68 67 63 64 64 62 61 61 61 62 63 64 66
63 63 62 63 65 62 59 59 57 56 57 57 57 56 58 59 59 62 58 60 62 64 66 69 69 69 70 65 67 66 63 62 60 60 60 60 60 62
60 61 61 65 64 65 64 64 62 56 56 56 56 55 57 58 61 58 57 56 56 67 65 68 69 67 70 71 70 67 63 62 61 60 59 58 58 59
59 58 60 62 63 61 62 63 62 62 62 57 56 56 56 59 59 57 57 56 58 65 62 63 68 68 73 72 66 64 63 62 61 60 59 58 57 57
59 59 58 59 59 59 58 56 56 56 57 59 58 60 60 62 59 58 57 57 59 61 62 60 67 69 72 72 66 64 62 61 60 59 58 56 55 54
57 58 58 58 59 58 56 54 54 55 60 60 60 59 60 60 60 58 57 56 55 58 62 62 65 66 67 71 69 64 61 60 59 59 58 56 54 52
56 57 58 57 55 54 53 52 54 56 55 56 58 59 60 60 61 59 57 56 56 57 65 63 65 66 62 66 68 65 64 58 57 56 56 55 52 58
54 54 54 54 51 51 51 50 52 53 55 55 56 57 58 58 58 58 58 58 57 60 66 66 65 65 65 62 64 63 63 58 59 56 53 52 51 58
53 52 52 51 51 51 51 52 52 54 54 54 54 54 55 56 56 58 59 61 63 62 65 65 64 66 64 63 62 63 62 62 61 60 59 53 52 54
52 52 53 50 51 53 54 54 54 53 52 51 51 52 54 55 56 58 59 60 62 62 64 64 65 65 65 63 62 64 62 62 63 62 61 58 58 58
51 47 51 54 53 53 51 51 51 52 52 51 51 53 54 54 54 57 56 57 59 59 62 64 66 65 63 63 63 62 64 62 63 63 63 63 63 62
45 50 51 52 52 47 47 48 50 49 48 49 51 51 51 52 53 55 56 56 55 55 58 64 64 61 59 62 61 61 62 65 65 64 63 62 62 63
47 46 46 45 44 44 44 45 47 49 46 48 50 50 50 50 51 54 55 55 54 55 56 57 60 60 59 58 57 56 62 62 65 65 65 63 63 63
45 43 42 41 41 41 41 43 45 49 47 48 48 50 51 50 50 52 52 53 54 56 55 57 56 60 60 56 57 54 57 62 65 65 65 65 65 65
42 41 43 41 40 40 41 41 45 48 50 49 51 52 48 50 49 49 50 50 51 54 55 56 56 55 57 55 54 56 50 57 58 63 65 65 62 60
42 41 42 42 40 40 40 41 42 43 46 46 47 49 49 47 48 49 49 48 49 51 54 55 56 56 58 58 56 56 58 52 53 55 62 63 62 62
42 42 42 40 40 39 39 39 40 40 41 42 43 45 47 47 48 48 49 48 48 49 52 57 58 57 56 55 54 55 56 58 57 55 54 54 60 60
42 41 40 40 39 38 36 35 36 37 37 38 40 42 44 44 46 49 51 51 49 49 50 52 54 56 56 54 54 54 55 56 57 56 56 55 55 54

GFSNE_sfc_temp_003.txt.gz
Temp
63 63 62 61 59 59 58 57 52 48 48 53 55 58 59 60 64 66 64 68 69 70 69 69 69 70 72 72 73 74 75 76 75 75 75 76 77 78
63 63 62 61 60 59 58 56 55 52 51 53 55 56 59 63 66 65 65 68 67 68 68 68 68 69 70 71 71 71 73 74 73 73 73 73 74 75
63 62 63 62 59 58 58 56 55 54 54 54 55 58 58 60 62 62 63 63 64 67 68 68 67 67 69 69 69 69 70 71 72 72 72 72 72 73
63 62 62 64 60 58 57 57 56 55 54 54 55 57 56 61 61 59 62 66 65 68 67 67 67 66 66 66 66 66 67 68 68 69 70 71 71 71
63 62 61 60 59 58 57 57 57 57 55 55 57 62 60 60 59 60 60 63 65 68 67 67 66 66 65 64 64 63 63 63 64 64 65 67 69 70
63 62 61 60 60 59 58 58 57 56 55 54 57 59 58 60 59 58 59 63 62 67 67 66 67 68 66 64 63 63 61 60 60 61 62 63 64 66
62 62 61 63 65 62 59 58 56 56 55 55 56 57 56 56 57 59 58 60 62 64 62 64 66 69 70 65 67 66 63 61 59 59 59 59 60 62
60 59 59 64 63 65 64 64 61 56 55 55 55 54 55 56 59 59 58 55 54 65 60 63 67 67 71 69 67 65 63 61 60 60 59 58 59 59
57 57 58 61 61 59 61 62 62 62 62 57 54 54 54 57 60 56 56 55 56 61 60 58 63 62 68 70 66 64 63 62 61 60 59 58 58 57
58 58 56 56 57 58 57 55 55 55 55 57 55 56 57 59 60 58 57 56 57 58 59 55 63 62 67 70 66 65 62 61 60 60 59 57 55 54
56 56 57 56 58 58 55 53 52 53 58 59 59 58 58 59 59 57 55 54 53 56 63 57 61 60 63 68 69 64 62 60 59 59 58 56 54 53
55 55 58 56 55 54 52 50 52 52 52 54 57 57 58 58 60 58 56 53 53 53 61 57 59 60 60 66 68 66 64 58 56 56 56 55 52 58
53 53 53 55 51 52 50 50 50 51 52 53 55 56 56 56 57 57 57 55 54 55 61 61 59 60 62 61 66 67 64 58 59 55 53 52 51 58
52 51 51 52 50 51 51 53 52 53 50 52 52 52 52 53 55 56 57 57 59 59 63 62 63 62 64 64 63 62 62 62 61 58 57 52 51 53
51 51 52 49 48 52 53 54 53 48 48 49 50 51 52 53 54 55 57 58 59 61 62 62 61 62 64 63 63 62 61 61 62 60 58 56 55 57
51 46 50 51 53 53 49 48 47 47 47 46 48 51 52 52 52 54 54 55 56 57 61 62 61 62 62 64 63 63 63 61 62 62 61 59 60 60
44 50 51 48 46 44 44 44 45 45 44 45 46 48 50 50 51 53 53 53 54 55 55 58 61 59 59 62 62 62 63 62 62 62 62 61 61 62
50 50 45 43 41 40 40 41 42 46 44 44 45 47 47 48 49 51 52 51 52 55 55 56 57 58 57 57 59 58 62 64 64 63 62 62 61 63
49 45 41 40 39 39 39 39 40 43 43 43 43 46 47 46 48 48 49 50 50 53 55 56 56 55 58 54 56 53 56 61 64 63 64 64 63 64
41 40 39 39 38 38 38 38 39 41 42 43 44 45 45 44 46 47 48 48 49 52 55 55 55 55 55 54 54 54 50 57 59 63 64 65 62 59
41 39 39 39 38 38 38 38 38 39 39 39 41 43 44 42 43 46 47 48 48 50 52 54 56 56 57 57 55 55 57 51 53 57 60 62 62 62
40 39 39 39 38 37 36 35 36 37 36 37 38 40 42 43 44 44 45 47 47 49 51 53 55 55 55 53 52 53 55 57 56 55 54 54 59 60
40 39 38 37 36 35 34 34 34 35 35 35 36 38 40 41 43 44 47 51 48 48 49 49 51 52 51 52 51 52 53 54 55 55 56 54 54 54

GFSNE_sfc_temp_006.txt.gz
Temp
67 67 66 67 66 64 63 62 59 56 58 63 63 66 67 67 68 70 68 68 68 67 66 66 67 68 70 71 72 73 75 75 76 75 75 76 77 78
67 66 66 66 66 65 64 62 60 58 56 61 64 64 66 67 68 69 68 67 67 66 66 66 67 67 68 69 70 70 72 73 73 74 74 74 74 75
67 66 66 66 66 65 63 62 60 58 57 64 63 66 64 65 66 67 67 66 68 66 66 66 66 66 66 68 68 68 69 70 71 72 73 73 73 73
67 66 66 68 65 65 63 62 61 60 58 58 64 64 63 65 65 63 65 68 68 68 66 65 65 65 65 65 65 66 66 67 68 69 70 72 72 72
67 66 66 65 64 64 63 62 61 62 59 59 61 65 64 66 64 64 64 65 67 68 66 66 66 65 64 64 63 63 62 63 64 64 65 67 69 71
67 66 66 65 64 64 63 62 62 61 61 59 61 62 63 65 64 61 62 66 65 69 69 67 66 66 66 64 64 63 61 60 60 61 62 63 65 67
67 66 66 66 66 64 63 63 61 60 60 59 60 62 62 63 61 64 61 63 64 66 66 68 68 69 69 67 68 67 63 61 59 59 59 59 61 62
66 65 64 65 64 64 64 64 64 61 60 59 61 59 60 61 63 61 61 59 57 67 65 64 67 64 68 68 68 66 64 62 60 59 58 58 59 59
63 63 63 64 64 63 63 62 62 62 62 62 57 59 59 61 61 59 58 57 57 62 61 58 63 61 67 70 66 65 63 62 61 60 59 58 58 58
63 62 61 62 62 62 62 61 61 61 61 62 60 60 60 61 60 60 57 57 58 59 62 53 61 60 65 69 66 65 63 61 60 59 59 58 56 55
62 61 61 61 59 58 61 59 59 59 60 59 58 58 58 58 59 57 55 54 53 56 62 57 59 60 62 64 69 65 63 60 59 59 59 57 55 54
60 60 58 58 55 54 59 57 56 58 57 57 58 59 59 59 59 59 57 53 53 52 60 55 57 57 55 63 67 68 69 59 57 56 57 57 53 64
59 61 59 54 52 52 50 56 55 56 56 55 56 58 58 58 59 60 58 55 52 53 58 56 55 57 56 59 66 67 68 67 64 59 53 52 51 63
60 59 56 51 50 50 53 52 52 54 54 54 54 54 53 55 57 56 57 56 56 56 57 60 57 58 57 59 59 64 65 65 64 62 60 54 52 54
58 55 52 49 48 52 52 53 52 53 52 51 51 52 53 55 55 55 56 56 57 57 60 60 60 60 60 61 65 62 63 62 63 61 59 58 57 60
54 55 53 53 53 54 53 52 52 52 52 49 50 51 53 53 52 54 52 53 53 55 60 61 61 60 59 60 63 65 63 61 62 61 61 60 59 61
50 55 55 55 52 52 52 50 50 52 50 50 48 49 50 51 50 52 51 51 51 52 55 57 60 61 60 60 63 66 63 62 63 62 61 60 60 62
52 55 53 49 50 50 50 50 51 51 51 50 50 49 50 48 48 50 50 50 50 52 54 56 56 58 59 58 58 57 64 64 62 62 63 62 61 62
54 53 52 50 50 49 49 49 49 50 48 50 48 50 50 49 48 48 48 48 49 51 54 55 55 55 55 54 56 53 53 63 63 62 63 63 64 63
52 51 50 49 49 49 49 49 48 49 49 48 48 48 49 48 48 48 48 47 48 52 53 54 54 54 53 53 54 55 50 57 61 63 63 66 65 59
50 50 50 49 49 49 48 47 46 47 47 47 48 47 49 49 49 49 46 47 48 51 51 51 53 55 56 57 54 54 57 52 54 59 61 63 64 64
50 50 49 49 48 47 46 46 47 47 46 47 46 47 48 50 50 50 50 46 48 48 50 52 54 53 53 52 51 51 52 55 56 54 54 54 60 63
50 50 48 47 46 46 45 46 46 47 46 46 46 47 48 49 51 52 52 53 53 50 50 49 51 52 51 51 50 50 50 51 53 54 53 54 53 53

GFSNE_sfc_temp_009.txt.gz
Temp
77 77 77 79 79 78 76 75 72 69 72 77 74 79 78 79 78 77 77 72 68 67 66 66 66 67 68 69 69 70 71 72 73 74 75 76 77 78
78 76 76 79 79 77 76 76 74 72 69 78 76 77 77 77 77 76 77 70 70 68 66 66 66 67 67 68 68 68 69 70 71 72 73 73 75 75
77 75 75 75 77 77 76 75 74 73 69 75 78 76 72 73 75 76 77 76 78 69 67 66 66 66 66 66 66 67 67 68 69 70 71 72 73 73
77 76 76 78 74 74 76 73 73 73 71 67 73 75 74 74 73 72 75 78 77 73 67 66 65 65 64 64 64 64 64 65 66 67 69 70 71 72
76 76 76 75 74 76 74 75 76 71 71 67 70 75 76 76 74 74 73 74 76 72 67 66 65 65 64 64 63 62 61 62 62 63 65 66 68 70
77 77 76 75 74 74 74 73 73 72 72 71 71 73 75 75 74 72 72 76 75 78 74 71 69 69 67 65 64 64 61 60 59 60 61 62 64 67
77 76 76 75 70 70 73 73 71 72 73 72 71 73 73 73 70 73 71 73 73 75 74 76 76 77 76 71 71 68 65 62 60 59 59 59 60 62
75 77 76 69 69 65 65 65 67 69 68 66 69 69 67 69 71 70 69 68 65 74 71 71 75 73 75 75 69 66 65 63 61 60 58 58 58 59
75 75 75 77 68 73 68 64 64 63 63 67 64 66 66 68 66 64 64 60 59 67 68 67 72 71 69 70 66 64 64 63 62 60 59 58 57 57
75 74 72 71 72 69 70 70 71 71 70 71 69 68 68 68 65 63 58 57 61 67 69 64 70 66 66 67 66 64 63 62 61 60 59 57 56 55
74 71 70 70 63 59 66 67 68 69 66 60 59 58 58 58 60 60 58 59 58 65 70 60 60 59 61 63 69 66 63 61 60 59 59 57 55 53
71 67 60 64 56 55 66 67 65 67 67 67 67 66 64 66 61 65 62 55 57 56 62 55 55 56 53 62 69 71 73 60 58 57 57 56 54 69
73 72 71 56 53 52 51 66 64 61 64 65 67 68 69 69 70 69 67 64 57 53 59 56 54 55 54 54 62 64 69 73 73 67 54 54 52 63
72 73 67 53 50 51 55 53 53 55 66 66 66 66 66 67 68 66 64 65 64 56 57 56 54 54 55 55 57 62 66 76 71 69 70 59 52 54
71 62 53 50 49 51 55 53 53 65 65 64 64 64 65 66 64 64 66 65 64 59 57 57 57 58 58 58 58 61 61 66 68 66 65 61 60 62
58 68 58 55 53 60 60 61 63 64 63 62 62 64 65 66 65 65 63 62 56 60 58 60 59 59 58 59 60 59 63 62 64 64 62 62 63 67
61 68 67 67 66 65 61 62 64 64 62 63 62 63 63 64 64 64 63 61 55 54 53 57 58 59 59 58 59 60 63 64 64 62 62 61 62 64
62 66 66 65 64 64 64 64 64 61 62 61 62 62 61 61 62 62 64 61 55 56 54 55 55 55 58 57 57 54 57 65 65 64 64 62 61 63
65 66 65 64 64 63 63 64 62 62 58 61 61 61 61 61 60 61 60 58 54 55 55 55 54 52 51 51 57 54 54 57 63 62 63 63 63 63
66 65 64 63 62 63 63 62 61 61 61 60 60 61 61 60 60 60 59 54 54 51 56 56 53 51 51 51 52 55 53 54 57 63 62 64 63 60
65 64 64 63 63 63 62 60 57 59 57 58 60 60 61 60 60 61 61 54 54 49 51 53 53 54 55 56 53 52 55 52 52 54 58 63 63 63
65 63 62 63 62 61 60 59 59 60 60 60 60 60 61 61 61 61 62 60 60 57 55 53 54 53 52 51 50 51 52 53 55 54 53 52 58 62
62 63 62 62 61 60 59 60 61 61 60 59 59 60 60 60 62 62 63 63 62 61 57 55 56 52 50 49 50 50 51 50 51 51 52 52 53 53

GFSNE_sfc_temp_015.txt.gz
Temp
82 82 82 85 87 87 85 76 70 65 69 74 75 81 86 87 84 84 82 78 73 70 69 68 68 69 69 69 70 70 70 70 70 70 70 71 73 75
84 83 82 84 86 86 80 81 77 76 71 78 82 85 84 85 83 83 82 76 72 70 69 68 68 68 68 69 68 68 69 69 69 69 69 69 70 71
81 81 81 81 82 84 85 84 83 82 78 81 83 84 80 80 81 82 83 79 83 73 70 68 67 67 68 68 67 67 67 68 68 68 68 68 69 69
80 80 80 84 79 79 82 74 74 81 79 73 78 80 79 80 80 80 82 85 84 79 70 68 67 66 66 66 65 65 65 65 65 66 66 67 68 68
81 80 81 81 80 81 80 80 82 81 81 79 77 81 78 80 80 77 73 75 80 78 72 68 67 66 66 64 64 63 62 62 62 63 63 64 65 66
81 82 82 81 80 79 79 78 79 78 78 78 78 77 76 72 80 76 72 71 77 86 81 76 73 72 67 65 64 64 61 59 60 60 60 61 62 63
80 82 81 81 76 74 79 78 77 77 78 78 77 75 77 73 73 76 73 74 73 81 81 82 82 82 81 73 71 67 64 62 60 59 59 58 58 60
79 81 81 76 74 69 68 67 69 71 71 73 74 72 70 73 75 72 73 72 69 80 75 76 79 78 80 82 75 69 65 62 62 60 59 58 58 58
76 79 80 85 75 79 67 65 65 65 65 71 68 69 70 72 71 69 69 69 68 73 72 69 75 75 77 82 69 66 65 64 63 62 61 59 58 57
75 79 77 75 75 73 71 68 71 77 73 72 72 72 72 73 70 69 68 67 70 73 73 65 73 71 74 80 70 68 66 66 63 61 59 59 57 55
74 77 76 73 65 64 66 67 72 75 74 66 65 64 63 63 65 70 68 69 67 69 74 72 71 74 75 74 75 70 64 63 61 61 60 59 56 54
70 72 63 66 59 59 64 68 69 73 75 77 74 69 63 68 62 66 70 67 69 67 74 71 71 70 61 69 70 66 64 63 59 59 58 57 55 63
76 75 69 58 56 55 57 69 69 67 71 72 73 72 73 77 79 76 70 70 69 68 73 71 68 63 60 58 60 58 59 63 66 65 57 55 53 58
76 75 74 55 53 54 56 62 58 58 72 72 72 69 73 75 76 75 72 71 72 69 70 68 61 60 57 55 53 59 61 63 63 63 65 61 52 53
77 65 56 54 55 54 54 57 56 69 71 71 72 73 74 75 73 72 73 72 72 71 70 70 64 63 60 55 53 54 55 58 61 63 63 64 65 64
60 67 66 65 62 62 64 61 68 70 71 70 70 72 74 73 72 73 72 72 71 70 72 69 68 64 59 57 54 54 55 53 56 59 61 66 68 70
72 78 73 73 73 70 67 65 66 68 72 72 71 70 70 71 71 72 70 70 68 66 68 71 68 66 64 58 53 55 55 54 55 56 58 67 69 74
72 75 76 76 73 69 68 66 67 71 73 72 70 69 69 68 68 69 70 69 67 68 66 67 62 62 59 59 60 54 54 52 54 55 57 63 64 70
72 76 76 77 74 70 71 73 73 73 68 70 69 69 69 69 68 68 68 68 67 67 66 65 61 56 50 49 54 55 52 52 52 52 54 56 63 65
73 76 76 74 75 74 73 73 72 72 71 70 69 69 69 68 67 67 68 67 66 67 66 66 62 52 50 50 50 54 52 51 50 50 51 53 56 60
78 77 76 75 74 73 72 71 69 68 67 66 67 69 69 69 68 68 68 59 61 67 65 62 58 54 54 59 52 52 54 53 51 50 50 50 52 64
78 75 74 73 71 70 69 69 68 68 69 69 69 68 69 69 69 68 69 68 68 68 67 65 63 59 54 53 50 51 51 53 54 54 54 51 49 49
75 74 73 72 71 69 68 68 68 69 70 69 69 68 68 68 69 69 70 71 71 68 67 67 68 60 58 50 51 50 49 49 49 49 50 52 52 53

GFSNE_sfc_temp_021.txt.gz
Temp
71 69 68 69 68 68 69 67 64 58 59 65 70 72 71 73 71 70 69 72 71 71 69 69 69 69 70 71 71 71 71 71 71 71 71 71 72 73
70 71 71 67 68 68 67 66 66 64 60 64 66 68 71 73 74 70 71 73 72 70 69 68 68 69 69 70 69 69 70 70 70 70 70 70 70 71
70 70 69 69 68 68 68 67 67 66 62 64 66 67 67 68 70 69 70 69 69 70 69 68 67 68 68 69 68 68 68 68 69 69 69 69 69 69
69 68 70 72 69 69 68 66 66 65 64 62 64 66 67 68 68 67 70 75 70 72 70 68 67 66 66 66 66 66 66 66 66 67 67 68 68 69
69 68 68 69 69 68 70 68 66 67 64 63 63 65 66 66 65 65 66 66 70 72 69 68 68 67 65 64 63 63 62 62 62 63 64 65 66 67
69 69 70 70 68 70 69 68 66 64 64 63 62 63 63 65 63 62 62 63 65 72 72 70 68 69 67 64 63 63 61 60 59 59 60 61 62 64
68 69 71 72 72 71 69 66 66 64 63 62 61 61 64 63 59 61 60 61 62 65 64 64 63 63 64 65 67 67 64 61 60 59 58 57 58 59
66 68 72 72 72 69 67 65 65 63 62 61 61 62 63 63 61 59 59 58 57 64 60 64 63 62 65 63 67 66 64 62 61 60 58 57 57 58
67 69 70 74 71 68 64 64 64 64 65 66 62 61 60 61 61 59 58 57 57 64 58 58 60 59 65 67 66 65 64 63 61 60 59 59 58 57
68 68 67 67 67 66 66 64 65 66 65 65 61 65 62 63 61 61 59 57 56 57 57 53 58 57 62 63 66 65 63 62 61 60 60 59 57 55
67 67 65 66 66 63 67 65 65 65 65 63 63 63 62 62 63 58 56 55 52 54 57 55 60 55 58 61 63 64 63 61 60 59 59 58 56 54
65 66 65 66 62 61 63 61 63 62 62 61 62 61 61 61 63 59 61 54 53 52 58 55 56 55 55 57 57 63 64 61 58 56 56 56 54 56
67 66 67 61 58 57 58 62 61 59 61 58 59 59 59 59 60 61 59 56 54 53 59 55 53 53 50 51 54 60 63 62 59 57 55 54 53 54
63 63 64 59 56 55 56 58 57 59 57 56 56 56 56 58 60 58 59 58 58 58 59 55 52 52 52 51 55 62 63 62 61 59 58 57 54 55
62 58 55 55 54 54 55 57 56 55 55 54 55 55 57 63 61 58 59 58 57 57 60 55 54 55 55 52 54 57 56 58 60 56 58 57 57 57
58 57 56 56 55 57 56 54 54 54 54 55 59 55 55 55 55 54 53 53 51 53 58 58 56 58 55 52 54 54 56 52 56 57 55 55 55 55
57 58 57 56 54 54 55 57 54 56 55 57 60 54 54 54 53 53 52 51 49 49 51 55 56 56 55 53 52 55 53 53 56 54 52 51 53 54
57 58 55 56 55 55 55 55 58 60 59 59 58 54 53 52 51 52 51 49 48 49 49 51 50 51 50 52 59 54 53 52 55 54 52 48 49 52
58 58 58 58 58 58 57 60 59 57 59 56 54 52 52 52 52 50 50 50 49 49 50 49 50 48 46 47 50 56 52 53 52 50 50 48 47 49
56 57 57 57 57 56 55 55 54 54 53 52 52 52 51 50 50 50 50 48 49 48 48 48 49 48 47 46 48 53 53 50 49 48 47 48 49 53
57 57 60 57 55 55 54 53 53 53 52 52 51 50 51 49 50 50 49 51 50 48 48 48 50 55 50 50 46 48 54 53 52 48 47 45 45 46
57 58 57 55 55 54 53 53 52 52 51 50 50 50 49 50 50 50 50 49 50 48 48 49 50 50 49 46 45 46 50 51 53 54 52 49 44 42
57 56 55 55 55 54 53 53 52 52 50 50 50 49 49 50 50 49 50 51 50 49 49 49 48 49 47 46 46 44 46 47 49 49 48 50 50 50

GFSNE_sfc_temp_024.txt.gz
Temp
66 66 66 66 66 65 64 64 63 57 58 62 64 68 68 68 69 69 67 71 70 69 69 68 69 70 70 71 71 71 72 72 72 71 71 72 73 74
69 69 67 66 65 65 65 64 63 62 58 62 65 66 67 70 71 68 69 71 70 69 69 68 68 69 69 70 69 69 70 70 70 70 70 70 70 71
68 67 67 67 65 64 67 64 63 63 63 63 63 65 66 67 68 67 68 67 67 69 68 68 67 67 68 68 68 68 68 69 69 69 69 69 69 70
66 66 67 69 68 68 67 66 67 64 66 64 62 63 64 65 65 65 68 71 67 71 69 67 66 66 65 65 65 65 65 66 66 66 67 68 68 69
67 66 66 66 66 66 67 67 66 66 64 63 61 62 64 64 64 63 64 64 68 71 68 67 67 66 66 64 62 61 60 61 62 62 63 64 66 67
67 67 67 66 67 69 67 67 65 64 63 62 61 62 63 65 64 62 61 61 62 69 69 67 66 67 66 64 64 64 61 59 58 58 59 60 61 62
66 67 67 69 70 67 68 65 66 64 62 62 61 64 65 61 62 64 59 59 62 61 60 60 60 61 63 63 66 67 64 62 60 59 58 57 57 58
66 65 67 69 70 69 66 66 65 63 63 61 61 63 63 62 59 59 57 56 55 62 59 59 59 58 60 60 65 64 63 61 60 60 58 57 57 57
67 65 67 71 69 67 64 65 65 65 65 64 63 63 59 60 59 58 57 56 55 61 56 53 57 56 60 64 64 63 63 62 61 60 59 58 58 57
69 68 66 67 65 66 64 63 64 65 65 67 65 67 62 62 60 60 59 57 55 56 55 52 55 55 58 59 63 63 63 62 61 60 59 58 56 54
68 68 68 65 62 62 63 62 63 63 63 62 62 62 61 61 61 58 57 53 52 53 55 53 54 53 54 56 59 63 61 60 59 59 58 57 55 54
66 66 63 64 60 59 62 61 60 61 61 61 60 60 60 60 61 59 57 55 52 51 55 53 52 51 50 52 55 56 57 58 57 57 56 55 54 56
67 63 64 60 57 56 57 62 61 60 61 60 58 59 59 57 58 58 57 55 52 51 56 53 49 49 46 48 51 54 56 59 56 56 54 53 52 53
61 65 65 57 55 55 55 57 56 58 58 57 55 54 54 56 57 57 57 59 59 56 57 53 50 49 48 47 49 53 55 57 55 56 55 55 53 53
65 61 57 53 51 54 55 57 55 55 55 52 51 52 53 55 55 55 55 55 54 54 57 52 50 50 49 50 51 50 52 52 53 53 55 56 56 57
59 57 56 56 55 56 55 55 54 53 53 52 52 53 53 53 53 52 52 51 48 51 55 55 52 50 51 51 49 53 56 49 54 54 56 56 57 57
57 56 55 55 54 54 54 53 52 52 52 53 53 53 52 51 51 50 49 48 46 47 48 52 53 50 51 52 51 54 52 52 54 55 53 53 54 55
57 56 55 54 54 54 53 53 53 55 53 53 53 51 50 50 49 49 47 46 45 46 46 48 46 48 49 51 55 50 49 51 54 54 53 48 49 53
57 56 56 55 55 55 54 53 54 55 54 53 51 50 50 49 49 48 47 46 47 46 47 45 44 46 44 43 48 54 49 51 51 49 51 49 47 48
55 56 55 55 54 53 53 52 51 51 50 51 50 50 49 48 48 48 46 45 45 45 45 46 45 44 44 44 45 48 51 49 49 46 48 49 49 52
53 54 54 52 52 52 51 51 51 50 50 49 48 48 48 47 47 46 46 48 47 44 44 46 48 53 48 47 44 44 47 52 50 47 48 44 43 43
54 54 53 52 52 52 51 50 49 49 48 48 47 47 47 46 46 46 46 45 46 44 44 46 46 47 46 44 42 42 45 48 51 53 53 50 42 39
53 53 52 52 51 51 49 49 49 49 47 46 46 47 46 47 46 45 46 46 45 46 45 46 46 46 44 43 44 42 42 44 46 46 48 52 50 49

GFSNE_sfc_temp_027.txt.gz
Temp
64 65 65 64 63 63 62 63 62 57 61 64 62 65 66 66 67 68 67 70 70 69 68 68 68 69 70 71 71 71 72 72 72 72 72 72 73 74
64 64 64 63 63 63 62 61 61 61 59 62 65 64 66 68 70 68 67 70 70 68 68 67 68 68 69 69 69 69 70 70 70 70 70 70 71 71
65 65 65 64 63 66 63 61 61 61 60 63 65 66 65 65 67 67 68 65 65 68 68 67 67 67 67 67 67 67 68 68 68 69 70 70 70 70
65 65 65 67 64 64 65 63 63 62 65 64 65 65 65 64 64 64 67 70 68 70 67 66 65 65 64 64 64 64 63 64 65 65 66 68 68 69
65 64 65 65 63 63 63 62 62 63 63 62 63 64 65 64 66 65 64 64 68 70 69 68 66 66 65 65 64 63 61 61 61 61 62 63 65 66
66 66 65 65 64 64 64 63 62 62 63 62 61 61 63 65 64 63 64 63 64 69 69 66 66 66 65 63 63 63 61 60 58 58 59 59 60 62
67 68 66 67 68 66 65 63 63 62 61 61 61 62 63 62 62 63 61 58 59 61 59 61 59 59 60 62 65 66 63 61 60 59 58 57 57 58
66 65 66 69 68 67 67 66 65 63 60 59 60 60 61 62 61 60 59 57 55 61 56 57 58 59 59 59 64 63 62 61 60 59 58 57 57 57
65 67 67 70 67 66 65 65 65 65 65 62 60 62 61 61 60 57 56 55 55 57 56 53 55 55 60 61 63 63 62 61 61 60 58 57 57 56
68 67 68 68 67 65 63 62 63 64 63 65 65 65 62 63 60 59 58 56 55 57 55 51 56 56 59 57 62 63 61 61 60 59 59 57 55 54
68 68 68 67 63 62 64 62 61 61 62 61 61 61 60 60 60 57 56 54 52 53 54 52 53 52 52 56 60 62 60 59 58 58 58 57 54 53
66 66 63 65 59 59 63 61 61 61 60 61 60 59 59 59 61 58 57 54 51 49 53 52 50 50 49 51 52 55 54 57 56 55 56 55 53 52
66 65 65 58 55 55 58 62 60 61 61 59 58 57 56 56 56 55 55 54 51 50 55 53 49 47 46 46 48 52 53 56 55 54 54 53 52 53
66 65 62 56 53 53 55 57 55 59 57 56 54 53 52 53 55 55 54 54 54 55 55 52 50 47 45 44 46 50 52 53 52 54 54 53 52 53
62 61 58 53 51 53 54 54 54 56 54 54 52 51 52 54 53 53 54 53 52 52 55 50 48 47 46 45 48 48 48 51 52 51 52 52 53 55
58 57 57 56 56 55 55 55 55 55 53 52 51 51 52 51 51 50 50 49 47 50 53 51 48 46 46 47 47 48 51 47 52 54 53 54 58 59
58 59 57 55 55 54 53 53 52 52 52 50 51 51 51 50 50 49 48 46 45 45 46 49 50 46 46 47 46 49 49 48 51 52 52 52 53 54
59 58 57 55 55 54 53 52 51 54 51 51 51 51 50 49 48 47 46 45 44 44 43 44 44 46 47 49 54 48 46 46 50 51 50 48 48 53
58 57 56 54 54 53 53 52 53 53 52 52 51 49 49 48 48 47 46 44 45 43 44 43 41 42 41 41 47 54 46 47 47 47 48 48 47 50
56 55 55 55 54 54 53 53 52 51 50 49 48 48 47 48 47 46 45 43 43 43 43 43 42 42 41 42 44 46 50 45 46 45 45 49 51 53
54 54 54 53 52 51 50 50 49 48 48 48 47 47 46 46 45 45 44 47 45 42 43 44 46 52 43 45 43 42 45 49 48 45 45 45 44 44
53 53 51 50 50 51 50 49 48 48 47 47 46 45 45 45 45 45 44 44 43 42 42 44 44 45 44 42 40 40 44 44 50 52 52 51 44 39
52 51 51 51 50 50 49 48 48 47 46 46 45 44 44 45 44 44 44 44 43 43 42 43 43 43 43 41 42 39 40 43 44 44 49 52 52 50

GFSNE_sfc_temp_030.txt.gz
Temp
69 69 70 69 70 69 69 69 68 65 66 70 70 72 73 72 72 75 74 71 70 69 69 68 68 69 70 71 71 71 72 72 72 72 72 73 74 75
69 68 68 69 69 69 69 68 68 68 67 69 70 71 72 74 73 74 73 71 70 69 68 67 67 68 69 69 69 69 69 70 70 70 70 70 71 72
69 68 68 68 69 69 69 68 68 68 68 69 67 69 69 72 73 73 74 73 74 67 67 67 66 66 67 67 67 67 67 67 68 68 69 69 69 70
69 68 68 69 68 68 69 67 68 68 69 67 68 67 68 68 69 69 72 76 74 71 67 66 65 65 65 65 64 65 64 64 65 65 66 67 67 68
69 69 69 69 68 68 68 68 69 67 67 68 69 67 70 71 69 67 71 71 71 70 68 67 66 66 65 65 63 62 61 61 61 61 61 63 64 66
70 70 70 69 69 68 68 67 66 66 66 66 66 66 69 69 67 64 66 67 66 70 71 68 67 66 65 63 63 63 61 60 59 59 59 60 61 62
71 71 70 69 69 68 69 66 66 66 65 65 65 66 67 66 64 65 62 62 67 69 69 70 71 70 70 66 67 66 63 61 59 58 58 57 57 58
69 69 70 69 68 66 67 67 67 66 65 65 64 64 66 67 64 63 61 65 64 68 67 68 69 69 71 71 66 63 62 61 60 59 58 58 57 58
69 69 69 69 68 70 65 65 65 65 67 67 65 65 67 67 66 64 63 63 64 68 65 65 67 67 70 71 63 62 61 60 60 59 58 58 57 56
69 69 70 69 68 69 69 68 67 68 67 68 69 70 69 68 67 66 65 63 64 65 64 60 67 66 68 69 63 62 61 60 59 59 58 57 54 53
69 70 69 68 64 63 67 67 67 66 63 61 62 61 61 61 64 64 62 60 62 64 63 63 65 64 66 67 69 63 60 58 57 57 57 56 54 53
68 68 64 68 60 59 68 66 65 65 66 65 67 63 62 64 60 65 66 63 61 60 64 62 63 63 62 65 64 67 67 59 55 55 55 55 53 65
67 66 67 59 56 55 60 68 66 65 64 65 64 65 65 65 65 65 64 64 61 61 65 64 62 61 58 58 62 65 66 66 67 64 56 53 52 55
67 69 67 56 53 53 57 57 55 60 62 63 64 64 63 64 65 64 63 63 65 64 64 62 61 59 56 56 58 64 65 65 65 65 65 58 53 52
67 64 57 52 51 53 55 54 55 63 63 63 63 63 63 65 63 62 61 61 60 61 62 59 59 58 55 54 58 60 60 64 65 63 64 63 62 63
59 59 58 57 58 59 57 56 62 63 63 63 63 63 62 62 62 62 62 61 61 62 62 60 58 56 57 56 57 59 62 56 63 63 62 61 62 62
59 60 60 61 60 60 60 60 60 61 61 61 61 61 61 61 61 60 60 59 59 59 60 61 59 57 56 56 56 62 60 60 63 60 58 58 59 60
61 61 61 60 60 60 59 58 59 59 60 60 61 61 61 61 60 58 58 58 58 58 57 58 57 59 60 61 58 60 61 59 61 59 57 54 55 58
62 61 62 61 61 61 60 60 60 60 59 60 60 61 61 60 58 58 58 57 57 57 58 57 55 55 54 54 61 56 55 59 57 56 57 55 52 54
63 62 62 61 61 61 60 60 60 59 59 60 60 60 59 59 58 57 56 56 57 56 57 58 56 56 52 53 52 58 50 56 56 53 54 55 56 54
60 61 63 62 62 61 61 60 60 60 59 58 59 58 58 58 58 58 58 51 52 56 56 58 59 53 55 54 55 58 59 51 51 52 53 50 47 48
62 62 61 61 60 60 58 58 57 56 57 58 58 58 58 58 59 58 58 58 57 57 57 57 57 57 58 55 53 53 55 56 55 53 52 51 47 41
61 60 59 59 59 58 58 58 59 59 59 59 58 57 56 57 57 58 58 58 58 58 56 58 59 58 57 54 51 54 52 52 53 52 54 54 53 52

GFSNE_sfc_temp_033.txt.gz
Temp
79 79 81 83 83 83 82 83 81 77 78 81 82 83 85 85 82 83 83 76 70 70 69 69 69 70 70 71 71 71 72 72 72 71 72 72 74 75
82 78 78 82 82 82 82 82 81 80 77 83 82 83 83 83 82 82 83 75 71 69 68 67 68 69 69 69 69 69 70 70 70 70 70 70 71 71
79 78 77 79 82 82 82 82 81 80 78 81 83 81 78 80 82 83 83 82 84 69 67 67 66 67 67 68 68 68 68 68 68 68 69 69 69 70
78 77 77 80 77 78 80 77 80 79 80 75 80 80 77 79 79 79 82 85 81 75 68 67 66 66 66 66 66 66 65 65 66 66 66 67 68 68
79 78 78 78 76 80 78 79 80 79 78 79 79 81 80 81 79 78 78 79 79 73 68 68 68 67 66 65 64 63 62 62 62 62 63 63 64 66
80 79 79 78 77 76 76 76 77 78 77 77 78 79 79 79 78 77 78 76 79 75 74 71 69 69 66 64 63 63 61 59 59 59 60 60 61 63
79 80 80 78 74 75 78 76 76 76 77 77 76 77 77 77 75 80 76 77 75 72 80 81 81 81 80 70 70 67 63 61 60 58 58 58 58 59
79 79 80 73 71 68 68 70 75 74 74 77 77 76 74 76 78 77 76 71 74 80 76 78 80 78 80 81 70 65 62 61 60 59 58 57 57 58
80 79 79 80 73 77 67 66 67 67 71 76 74 75 74 76 75 72 73 73 74 75 73 74 79 76 80 81 66 63 61 60 59 59 59 58 57 57
80 80 79 78 76 76 77 75 75 75 74 79 78 77 77 77 75 75 72 72 74 76 74 70 77 75 78 79 68 64 62 60 59 58 57 56 55 54
80 80 79 78 71 64 74 76 76 76 67 65 66 64 64 64 70 76 71 72 72 75 75 72 74 73 75 75 77 67 62 59 58 57 57 56 54 53
79 78 66 76 63 60 72 76 74 76 75 73 73 66 65 66 61 72 75 73 74 72 75 71 73 73 69 76 75 76 76 64 58 56 56 55 53 71
80 78 79 61 56 56 62 76 75 77 71 75 77 77 74 73 75 73 74 75 73 72 74 73 72 72 70 69 72 74 75 75 76 73 59 55 53 56
78 79 73 56 55 54 59 62 57 65 78 77 76 74 75 75 75 75 73 73 75 72 73 69 70 70 68 68 68 73 74 75 74 73 74 64 57 55
75 68 59 53 54 55 57 56 58 77 76 75 74 75 76 77 74 71 71 70 70 71 72 69 70 69 69 67 67 69 68 73 74 72 72 71 70 71
60 61 60 59 60 62 60 59 73 77 76 76 76 76 74 72 72 73 72 72 72 73 71 69 67 66 68 70 69 68 71 68 72 71 70 69 70 71
62 62 62 62 62 63 65 67 72 73 73 75 73 72 72 72 71 72 72 71 69 70 71 73 71 67 67 65 66 69 69 69 71 69 65 65 67 69
62 61 61 62 63 65 67 67 69 69 74 73 73 72 71 70 71 71 71 70 69 69 68 70 69 68 70 69 65 68 69 68 69 67 65 64 64 68
63 62 62 63 64 67 67 69 70 73 71 72 72 71 71 71 68 70 69 69 68 68 68 69 67 65 63 62 70 58 65 66 66 65 65 64 62 64
63 63 64 66 68 68 71 71 73 71 71 71 71 72 71 71 69 69 69 68 68 67 67 68 67 66 64 63 62 66 52 64 64 61 61 64 64 58
64 65 66 70 71 72 71 73 72 71 71 71 71 72 71 71 69 70 69 57 59 67 65 66 69 54 65 66 64 66 68 51 56 59 59 58 58 53
64 66 69 72 74 73 72 71 71 68 69 70 71 71 71 72 71 69 69 68 66 67 67 69 69 67 67 65 63 62 65 65 62 55 53 53 55 44
66 70 70 72 72 70 70 69 71 72 71 72 71 70 70 70 70 70 70 70 70 68 67 67 69 68 66 65 59 64 61 62 63 62 64 55 54 53